sat.trackr.live / text

‹ back to catalog

TEMPSAT 1

NORAD 1512 · 1965-065E

PAYLOAD ACTIVE UNKNOWN

§ Identity

Operator
Country
US
Launch date
1965-08-13
Launch site
AFWTR
Launch vehicle
Mass (kg)
RCS (m²)
0.07

Purposes: military

External: N2YO · Heavens-Above · Gunter

§ Orbital elements

Epoch: 2026-05-25T04:06:15.238080Z

Period
107.98 min
Inclination
90.0003°
Eccentricity
0.0068093
Mean motion
13.33592679 rev/d
Perigee alt
1,082.1 km
Apogee alt
1,184.4 km
Semi-major
7,511.4 km
B*
1.4240e-5
RAAN
212.5904°
Arg perigee
314.4308°
Mean anomaly
72.4724°
Rev number
95,698

§ Raw data

TEMPSAT 11 01512U 65065E   26145.17100970  .00000015  00000+0  14240-4 0  99942 01512  90.0003 212.5904 0068093 314.4308  72.4724 13.33592679956986

JSON: /api/v1/satellites/1512 · /tle

For live sub-satellite position, see the globe view (requires WebGL).

§ Visibility from observer

Set your observer location to see the next 7 days of passes ≥ 10°. The values pass through the URL so the page stays shareable.

No JS? Fill the form by hand. The geolocation button needs JavaScript.